Location: Friedrichshafen
(47.6598°N, 9.4819°E)
Time: 10:36:43
(UTC+01:00)

Tiangong 2 - Visible Passes

Search period start: 24 November 2017 00:00
Search period end: 04 December 2017 00:00
Orbit: 386 x 392 km, 42.8° (Epoch: 24 November)

Date Brightness Start Highest point End Pass type
(mag) Time Alt. Az. Time Alt. Az. Time Alt. Az.
27 Nov 4.0 06:49:46 10° SSW 06:51:56 17° SSE 06:54:06 10° ESE visible
28 Nov 4.1 05:52:39 10° S 05:53:56 12° SSE 05:55:12 10° SE visible
29 Nov 3.3 06:29:26 10° SW 06:32:02 23° SSE 06:34:39 10° ESE visible
30 Nov 3.5 05:33:21 17° S 05:33:58 18° SSE 05:36:12 10° ESE visible
30 Nov 2.7 07:07:22 10° WSW 07:10:18 33° S 07:13:13 10° ESE visible
01 Dec 2.7 06:10:23 17° SW 06:12:09 29° S 06:14:59 10° ESE visible
02 Dec 3.6 05:15:00 20° SE 05:15:00 20° SE 05:16:39 10° ESE visible
02 Dec 2.5 06:47:28 10° WSW 06:50:24 34° S 06:53:21 10° ESE visible
03 Dec 2.3 05:51:50 32° SSW 05:52:13 33° S 05:55:09 10° ESE visible
